Other Public Products
Issued by NWS Grand Forks, ND

Home | Current Version | Previous Version | Graphics & Text | Print | Product List | Glossary On
Versions: 1 2 3 4 5 6 7 8 9 10 11 12 13 14 15 16 17 18 19 20 21 22 23 24 25 26 27 28 29 30 31 32 33 34 35 36 37 38 39 40 41 42 43 44 45 46 47 48 49 50
000
FPUS83 KFGF 010210
OPUFGF
PRAIRIE TO PINES WEATHER ROUNDUP
NATIONAL WEATHER SERVICE EASTERN NORTH DAKOTA/GRAND FORKS ND
900 PM CDT FRI SEP 30 2016

 **SATELLITE DATA USED TO AUGMENT SKY COVER AT AUTOMATED STATIONS**
 *****  WEATHER ACROSS EASTERN NORTH DAKOTA  *****

CITY           SKY/WX    TMP DP  RH WIND       PRES   REMARKS
GRAND FORKS    PTCLDY    60  50  69 SE10      30.18S
GRAND FORKS AF CLOUDY    58  51  76 SE9       30.18S
GRAND CITY NWS   N/A     59 N/A N/A SE13        N/A
BUXTON         NOT AVBL
DEVILS LAKE    MOCLDY    60  51  72 SE9       30.14F
FARGO          PTCLDY    60  49  66 E10       30.18F
WAHPETON ARPT  PTCLDY    57  45  62 E8        30.20S
$$

 *****  WEATHER ACROSS CENTRAL AND WESTERN NORTH DAKOTA  *****

CITY           SKY/WX    TMP DP  RH WIND       PRES   REMARKS
JAMESTOWN      PTCLDY    60  49  66 SE14      30.13F
BISMARCK       CLOUDY    63  47  55 SE12      30.07S
MINOT          CLOUDY    59  50  72 E8        30.06S
MINOT AFB      CLOUDY    58  51  77 SE12      30.05S
GARRISON         N/A     59  51  75 E8        30.05S
WILLISTON      PTCLDY    58  50  75 NE3       29.99F
DICKINSON      CLEAR     58  46  64 SE12      30.00S
HETTINGER      CLEAR     61  47  59 E10       30.02F
$$

 *****  OTHER OBSERVATIONS NORTHEAST NORTH DAKOTA  *****

CITY           SKY/WX    TMP DP  RH WIND       PRES   REMARKS
WALHALLA       FAIR      59  55  88 SE6       30.16S
LANGDON        FAIR      59  52  77 SE10      30.16S
CAVALIER       FAIR      63  50  63 SE10      30.16S
GRAFTON        FAIR      61  52  72 SE12      30.19S
CANDO          FAIR      59  50  72 SE14      30.14F
FORT TOTTEN      N/A     60  48  64 SE7       29.95S
ROLLA            N/A     57  48  72 S9        30.14R
RUGBY          FAIR      59  50  72 SE8       30.11R
 ***** THE ABOVE OBSERVATIONS ARE NON NWS ARE NOT QUALITY
        CONTROLLED AND MAY MIS-REPORT RAIN FOR SNOW...
$$

 *****  OTHER OBSERVATIONS SOUTHEAST NORTH DAKOTA *****

CITY           SKY/WX    TMP DP  RH WIND       PRES   REMARKS
COOPERSTOWN    FAIR      57  45  62 SE8       30.17S
VALLEY CITY    FAIR      59  46  63 S9        30.18S
OAKES          NOT AVBL
GWINNER        FAIR      59  50  72 SE12      30.17S
SHEYENNE NWR     N/A     51  46  83 SE6       29.95
BUFFALO        NOT AVBL
WYNDMERE       NOT AVBL
 ***** THE ABOVE OBSERVATIONS ARE NON NWS ARE NOT QUALITY
       CONTROLLED AND MAY MIS-REPORT RAIN FOR SNOW...
$$

  *****  WEATHER ACROSS NORTHERN MINNESOTA  *****

CITY           SKY/WX    TMP DP  RH WIND       PRES   REMARKS
FLAG ISLAND    PTCLDY    54  52  94 SE10      30.26S
WARROAD        PTCLDY    54  48  82 E7        30.26F
ROSEAU         PTCLDY    54  48  82 SE5       30.24F
HALLOCK        PTCLDY    61  54  77 SE15      30.18F
THF RVR FALLS  CLEAR     55  51  86 SE12      30.24S
HALSTAD          N/A     54  50  85 SE8         N/A
FOSSTON        CLOUDY    50  45  81 E5        30.24F
BAUDETTE       CLOUDY    50  48  93 E7        30.28
WASKISH        CLOUDY    50  48  93 E3        30.27S
CROOKSTON      PTCLDY    55  48  76 SE9       30.21F
$$
  *****  WEATHER ACROSS CENTRAL AND WEST MINNESOTA  *****

CITY           SKY/WX    TMP DP  RH WIND       PRES   REMARKS
BEMIDJI        FOG       47  47 100 E3        30.26S VSB 1/4
PARK RAPIDS    CLEAR     54  48  80 NE6       30.25F
WADENA         CLEAR     54  48  82 E6        30.23F
DETROIT LAKES  CLOUDY    59  50  72 SE7       30.24F
MOORHEAD       PTCLDY    57  50  77 SE8       30.20F
FERGUS FALLS   PTCLDY    61  46  59 E6        30.24R
ELBOW LAKE     FAIR      57  50  77 SE8       30.22S
MORRIS MN      CLOUDY    52  46  82 E5        30.21R
STAPLES        CLEAR     54  48  82 CALM      30.24F
WHEATON        NOT AVBL
$$
  *****  WEATHER ELSEWHERE ACROSS MINNESOTA  *****

CITY           SKY/WX    TMP DP  RH WIND       PRES   REMARKS
DULUTH         FOG       51  51 100 E10       30.29S VSB 1/2
INTRNTL FALLS  CLEAR     43  42  97 CALM      30.29F
ELY            CLEAR     48  46  93 CALM      30.32S
CLOQUET        CLOUDY    52  50  93 E7        30.29S
BRAINERD       CLEAR     54  47  77 E6        30.26S
HIBBING        CLEAR     50  46  86 SE7       30.29F
ALEXANDRIA     CLEAR     56  51  84 E8        30.24S
SAINT CLOUD    CLEAR     58  53  84 E8        30.23S
MINNEAPOLIS    MOCLDY    65  51  60 NE10      30.21S
$$

  *****  WEATHER ACROSS SOUTH DAKOTA  *****

CITY           SKY/WX    TMP DP  RH WIND       PRES   REMARKS
SIOUX FALLS    CLOUDY    56  48  74 CALM      30.17S
BROOKINGS      PTCLDY    58  45  62 E8        30.18S
WATERTOWN      PTCLDY    60  45  57 SE7       30.18S
HURON          PTCLDY    59  46  62 SE8       30.14S
SISSETON         N/A     54  46  74 S3        30.18S
ABERDEEN       PTCLDY    54  43  66 SE6       30.14F
MITCHELL       PTCLDY    59  46  62 SE7       30.14F
PIERRE         PTCLDY    64  45  49 SE15      30.06S
MOBRIDGE       CLOUDY    66  43  43 SE16      30.04F
RAPID CITY     PTCLDY    67  52  58 S8        30.01S
$$

  *****  SOME WEATHER IN NEARBY STATES *****

CITY           SKY/WX    TMP DP  RH WIND       PRES   REMARKS
GLASGOW MT     CLEAR     70  50  49 W6        29.93R
GREAT FALLS MT CLOUDY    68  41  37 S13       29.98R
CHEYENNE WY    CLOUDY    57  46  66 S10       30.20F
SCOTTSBLUFF NE CLOUDY    56  48  74 E7        30.10S
OMAHA NE       CLOUDY    64  53  67 E7        30.15R
DES MOINES IA  CLOUDY    64  55  72 NE5       30.16S
DAVENPORT IA   CLOUDY    60  58  92 N9        30.12S
CHICAGO IL     CLOUDY    62  58  86 E13       30.06F
EAU CLAIRE WI  CLOUDY    62  53  72 NE6       30.19F
LA CROSSE WI   CLOUDY    64  57  78 NE5       30.17F
$$

  *****  SOME NATIONAL WEATHER *****

CITY           SKY/WX    TMP DP  RH WIND       PRES   REMARKS
LA GUARDIA NY  LGT RAIN  61  58  90 NE18G26   30.25F FOG
RALEIGH NC     PTCLDY    73  71  93 SE6       30.02R
ATLANTA GA     PTCLDY    65  49  56 W3        30.05S
NEW ORLEANS LA PTCLDY    76  56  49 N7        30.05R
OKLAHOMA CITY  MOCLDY    66  45  46 CALM      30.11R
ALBUQUERQUE NM MOCLDY    72  43  35 SW7       30.17S
SALT LAKE CITY MOCLDY    70  48  45 S6        30.06F
LOS ANGELES CA PTCLDY    70  59  68 W13       29.93S
BOISE ID       MOCLDY    77  32  19 SE10      29.84F
SEATTLE WA     PTCLDY    59  41  51 S3        29.97S
$$

*** WEATHER ACROSS MANITOBA...SASKATCHEWAN AND ONTARIO ***
                ***ONTARIO***

CITY           SKY/WX    TMP DP  RH WIND       PRES   REMARKS
GERALDTON      CLEAR     52  50  93 CALM      30.37F
THUNDER BAY    PTCLDY    50  50 100 N2        30.32F
SIOUX LOOKOUT  CLEAR     45  45 100 SE3       30.31F
TORONTO        MOCLDY    59  48  67 E14G32    30.24F
BIG TROUT LK   PTCLDY    57  48  72 S6        30.28F
PICKLE LAKE    MOCLDY    52  48  87 SE7       30.32F
DRYDEN         CLEAR     54  52  94 S7        30.30F
KENORA         CLOUDY    52  50  93 S8        30.28S
$$
                *** MANITOBA***

CITY           SKY/WX    TMP DP  RH WIND       PRES   REMARKS
BRANDON        LGT RAIN  59  50  72 SE7       30.10S
DAUPHIN        MOCLDY    61  50  67 S10       30.06S
ISLAND LAKE    PTCLDY    57  48  72 S5        30.21S
PILOT MOUND      N/A     59  50  72 SE14        N/A
THE PAS        PTCLDY    57  50  77 SE9       30.02S
THOMPSON       PTCLDY    55  50  82 VRB2      30.12F
WINNIPEG       CLOUDY    59  52  77 SE15      30.18S
LYNN LAKE      LGT RAIN  48  46  93 NE12      30.15S FOG
CHURCHILL      MOCLDY    41  37  87 E7        30.34S
GILLAM         CLOUDY    54  52  94 E7        30.20F
$$
                ***SASKATCHEWAN***

CITY           SKY/WX    TMP DP  RH WIND       PRES   REMARKS
ESTEVAN        MOCLDY    55  52  88 E10       30.02F
KINDERSLEY     PTCLDY    52  48  87 NE6       29.99R
LLOYDMINSTER   CLOUDY    50  46  87 NE13      30.05S
PRINCE ALBERT  MOCLDY    54  48  82 NE3       29.97S
REGINA         MOCLDY    57  50  77 SE14G20   30.00R
YORKTON        CLEAR     57  50  77 S10       30.02R   C1F1C2F2C3F3C4F4C5F5C6F6C7F7C8F8C9F9CaFaCbFbCcFcCdFdCe!


USA.gov is the U.S. government's official web portal to all federal, state and local government web resources and services.